TimeEDT,TemperatureF,Dew PointF,Humidity,Sea Level PressureIn,VisibilityMPH,Wind Direction,Wind SpeedMPH,Gust SpeedMPH,PrecipitationIn,Events,Conditions,WindDirDegrees,DateUTC
12:53 AM,66.0,64.0,93,29.98,10.0,Calm,Calm,-,0.04,Rain,Light Rain,0,2013-06-19 04:53:00
1:53 AM,66.0,64.9,96,29.96,10.0,Calm,Calm,-,0.00,,Mostly Cloudy,0,2013-06-19 05:53:00
2:53 AM,66.0,64.9,96,29.97,10.0,ENE,6.9,-,N/A,,Scattered Clouds,60,2013-06-19 06:53:00
3:53 AM,66.0,64.0,93,29.98,10.0,ENE,3.5,-,N/A,,Clear,60,2013-06-19 07:53:00
4:53 AM,64.0,63.0,96,29.99,10.0,Calm,Calm,-,N/A,,Scattered Clouds,0,2013-06-19 08:53:00
5:53 AM,63.0,61.0,93,30.01,9.0,Calm,Calm,-,N/A,,Clear,0,2013-06-19 09:53:00
6:53 AM,63.0,61.0,93,30.03,8.0,ENE,4.6,-,N/A,,Clear,70,2013-06-19 10:53:00
7:53 AM,64.0,60.1,87,30.05,10.0,East,6.9,-,N/A,,Clear,80,2013-06-19 11:53:00
8:53 AM,64.9,59.0,81,30.06,10.0,East,10.4,-,N/A,,Clear,90,2013-06-19 12:53:00
9:53 AM,68.0,60.1,76,30.08,10.0,East,8.1,-,N/A,,Partly Cloudy,100,2013-06-19 13:53:00
10:53 AM,71.1,61.0,70,30.08,10.0,East,6.9,-,N/A,,Clear,100,2013-06-19 14:53:00
11:53 AM,73.0,62.1,68,30.09,10.0,East,4.6,-,N/A,,Clear,90,2013-06-19 15:53:00
12:53 PM,75.9,61.0,60,30.08,10.0,Variable,4.6,-,N/A,,Clear,0,2013-06-19 16:53:00
1:53 PM,78.1,61.0,56,30.07,10.0,ESE,5.8,-,N/A,,Clear,110,2013-06-19 17:53:00
2:53 PM,80.1,62.1,54,30.05,10.0,ENE,9.2,-,N/A,,Scattered Clouds,70,2013-06-19 18:53:00
3:53 PM,80.1,62.1,54,30.05,10.0,SE,5.8,-,N/A,,Mostly Cloudy,140,2013-06-19 19:53:00
4:53 PM,80.1,60.1,50,30.04,10.0,South,3.5,-,N/A,,Partly Cloudy,170,2013-06-19 20:53:00
5:53 PM,81.0,60.1,49,30.04,10.0,ESE,4.6,-,N/A,,Clear,110,2013-06-19 21:53:00
6:53 PM,80.1,57.9,47,30.04,10.0,SE,4.6,-,N/A,,Partly Cloudy,140,2013-06-19 22:53:00
7:53 PM,79.0,60.1,52,30.04,10.0,SE,4.6,-,N/A,,Clear,140,2013-06-19 23:53:00
8:53 PM,73.0,64.9,76,30.05,10.0,Calm,Calm,-,N/A,,Clear,0,2013-06-20 00:53:00
9:53 PM,68.0,64.9,90,30.06,10.0,Calm,Calm,-,N/A,,Clear,0,2013-06-20 01:53:00
10:53 PM,66.9,64.9,93,30.08,10.0,Calm,Calm,-,N/A,,Clear,0,2013-06-20 02:53:00
11:53 PM,64.9,64.0,97,30.09,8.0,Calm,Calm,-,N/A,,Clear,0,2013-06-20 03:53:00